When you browse on this site, cookies collect data to enhance your experience and personalize the content and advertising you see.
Visit our Privacy Policy to learn more. By continuing to use the site, you agree to this use of cookies and data.
  • In Schweiz
  • Länderverzeichnis
  • Für 7 Tage
  • Wassertemperatur
  • Wetterkarte
  • Widgets
  • user-avatar
    Anmelden

    Stündliche Wetter Dorogonka

    Heute, 24 August, Samstag

    Zeit Temperatur Niederschläge Wind Luftdruck Luftfeuchtigkeit
    00:00 +14°C° 0 mm 1 m/S 752 mmHg 87%
    01:00 +14°C° 0 mm 1 m/S 752 mmHg 87%
    02:00 +13°C° 0 mm 1 m/S 752 mmHg 87%
    03:00 +13°C° 0 mm 1 m/S 752 mmHg 87%
    04:00 +13°C° 0 mm 1 m/S 752 mmHg 87%
    05:00 +12°C° 0 mm 0 m/S 752 mmHg 88%
    06:00 +14°C° 0 mm 0 m/S 752 mmHg 82%
    07:00 +16°C° 0 mm 0 m/S 752 mmHg 76%
    08:00 +18°C° 0 mm 0 m/S 752 mmHg 70%
    09:00 +21°C° 0 mm 1 m/S 752 mmHg 65%
    10:00 +22°C° 0 mm 1 m/S 752 mmHg 60%
    11:00 +23°C° 0 mm 1 m/S 752 mmHg 55%
    12:00 +23°C° 0 mm 2 m/S 751 mmHg 54%
    13:00 +24°C° 0 mm 2 m/S 751 mmHg 52%
    14:00 +24°C° 0 mm 2 m/S 751 mmHg 51%
    15:00 +24°C° 0 mm 2 m/S 750 mmHg 55%
    16:00 +23°C° 0 mm 2 m/S 750 mmHg 60%
    17:00 +23°C° 0 mm 2 m/S 750 mmHg 65%
    18:00 +20°C° 0 mm 2 m/S 750 mmHg 69%
    19:00 +18°C° 0 mm 2 m/S 750 mmHg 73%
    20:00 +16°C° 0 mm 2 m/S 750 mmHg 77%
    21:00 +16°C° 0 mm 2 m/S 750 mmHg 81%
    22:00 +16°C° 0 mm 2 m/S 750 mmHg 84%
    23:00 +15°C° 0 mm 2 m/S 749 mmHg 88%

    Morgen, 25 August, Sonntag

    Zeit Temperatur Niederschläge Wind Luftdruck Luftfeuchtigkeit
    00:00 +15°C° 0 mm 2 m/S 749 mmHg 90%
    01:00 +15°C° 0 mm 2 m/S 750 mmHg 92%
    02:00 +14°C° 0 mm 2 m/S 750 mmHg 94%
    03:00 +14°C° 0 mm 2 m/S 750 mmHg 94%
    04:00 +14°C° 0 mm 2 m/S 750 mmHg 95%
    05:00 +13°C° 0 mm 2 m/S 750 mmHg 95%
    06:00 +15°C° 0 mm 2 m/S 750 mmHg 89%
    07:00 +16°C° 0 mm 3 m/S 750 mmHg 82%
    08:00 +18°C° 0 mm 3 m/S 751 mmHg 76%
    09:00 +19°C° 0 mm 3 m/S 751 mmHg 70%
    10:00 +20°C° 0 mm 3 m/S 751 mmHg 65%
    11:00 +21°C° 0 mm 4 m/S 751 mmHg 60%
    12:00 +21°C° 0 mm 3 m/S 751 mmHg 59%
    13:00 +21°C° 0 mm 3 m/S 751 mmHg 58%
    14:00 +22°C° 0 mm 3 m/S 751 mmHg 57%
    15:00 +21°C° 0 mm 3 m/S 751 mmHg 61%
    16:00 +21°C° 0 mm 3 m/S 751 mmHg 65%
    17:00 +20°C° 0 mm 2 m/S 751 mmHg 69%
    18:00 +19°C° 0 mm 2 m/S 752 mmHg 73%
    19:00 +17°C° 0 mm 2 m/S 752 mmHg 77%
    20:00 +15°C° 0 mm 1 m/S 752 mmHg 81%
    21:00 +15°C° 0 mm 1 m/S 752 mmHg 83%
    22:00 +14°C° 0 mm 1 m/S 753 mmHg 85%
    23:00 +14°C° 0 mm 1 m/S 753 mmHg 86%

    übermorgen, 26 August, Montag

    Zeit Temperatur Niederschläge Wind Luftdruck Luftfeuchtigkeit
    00:00 +13°C° 0 mm 1 m/S 753 mmHg 87%
    01:00 +13°C° 0 mm 1 m/S 753 mmHg 88%
    02:00 +12°C° 0 mm 1 m/S 753 mmHg 89%
    03:00 +12°C° 0 mm 1 m/S 753 mmHg 89%
    04:00 +12°C° 0 mm 1 m/S 753 mmHg 90%
    05:00 +12°C° 0 mm 1 m/S 753 mmHg 90%
    06:00 +14°C° 0 mm 1 m/S 753 mmHg 84%
    07:00 +16°C° 0 mm 1 m/S 753 mmHg 78%
    08:00 +18°C° 0 mm 1 m/S 754 mmHg 71%
    09:00 +20°C° 0 mm 1 m/S 753 mmHg 67%
    10:00 +21°C° 0 mm 1 m/S 753 mmHg 62%
    11:00 +22°C° 0 mm 1 m/S 753 mmHg 58%
    12:00 +22°C° 0 mm 1 m/S 753 mmHg 57%
    13:00 +22°C° 0 mm 1 m/S 753 mmHg 56%
    14:00 +23°C° 0 mm 2 m/S 752 mmHg 55%
    15:00 +21°C° 0 mm 2 m/S 752 mmHg 58%
    16:00 +21°C° 0 mm 2 m/S 751 mmHg 62%
    17:00 +20°C° 0 mm 2 m/S 751 mmHg 66%
    18:00 +19°C° 0 mm 2 m/S 751 mmHg 69%
    19:00 +17°C° 0 mm 2 m/S 751 mmHg 73%
    20:00 +16°C° 0 mm 2 m/S 750 mmHg 76%
    21:00 +15°C° 0 mm 2 m/S 750 mmHg 77%
    22:00 +15°C° 0 mm 2 m/S 750 mmHg 78%
    23:00 +13°C° 0 mm 3 m/S 750 mmHg 79%

    27 August, Dienstag

    Zeit Temperatur Niederschläge Wind Luftdruck Luftfeuchtigkeit
    00:00 +13°C° 0 mm 3 m/S 750 mmHg 82%
    01:00 +12°C° 0 mm 3 m/S 749 mmHg 85%
    02:00 +12°C° 0 mm 3 m/S 749 mmHg 88%
    03:00 +12°C° 0 mm 3 m/S 749 mmHg 89%
    04:00 +12°C° 0 mm 3 m/S 748 mmHg 89%
    05:00 +12°C° 0 mm 3 m/S 748 mmHg 90%
    06:00 +14°C° 0 mm 3 m/S 748 mmHg 86%
    07:00 +16°C° 0 mm 3 m/S 748 mmHg 82%
    08:00 +18°C° 0 mm 4 m/S 747 mmHg 78%
    09:00 +19°C° 0 mm 4 m/S 747 mmHg 73%
    10:00 +21°C° 0 mm 5 m/S 747 mmHg 69%
    11:00 +22°C° 0 mm 5 m/S 746 mmHg 65%
    12:00 +22°C° 0.3 mm 5 m/S 746 mmHg 67%
    13:00 +21°C° 0.3 mm 6 m/S 745 mmHg 69%
    14:00 +21°C° 0.3 mm 6 m/S 745 mmHg 72%
    15:00 +20°C° 0.1 mm 5 m/S 745 mmHg 74%
    16:00 +20°C° 0.1 mm 5 m/S 745 mmHg 76%
    17:00 +19°C° 0.1 mm 5 m/S 745 mmHg 77%
    18:00 +18°C° 0 mm 4 m/S 745 mmHg 78%
    19:00 +15°C° 0 mm 4 m/S 745 mmHg 78%
    20:00 +14°C° 0 mm 4 m/S 746 mmHg 78%
    21:00 +13°C° 0 mm 4 m/S 746 mmHg 79%
    22:00 +12°C° 0 mm 4 m/S 747 mmHg 81%
    23:00 +11°C° 0 mm 4 m/S 748 mmHg 82%

    28 August, Mittwoch

    Zeit Temperatur Niederschläge Wind Luftdruck Luftfeuchtigkeit
    00:00 +10°C° 0 mm 4 m/S 748 mmHg 83%
    01:00 +8°C° 0 mm 4 m/S 748 mmHg 83%
    02:00 +7°C° 0 mm 3 m/S 748 mmHg 84%
    03:00 +7°C° 0 mm 3 m/S 749 mmHg 84%
    04:00 +5°C° 0 mm 3 m/S 749 mmHg 84%
    05:00 +4°C° 0 mm 3 m/S 749 mmHg 84%
    06:00 +7°C° 0 mm 3 m/S 749 mmHg 78%
    07:00 +8°C° 0 mm 4 m/S 749 mmHg 73%
    08:00 +9°C° 0 mm 5 m/S 750 mmHg 67%
    09:00 +10°C° 0 mm 5 m/S 750 mmHg 63%
    10:00 +12°C° 0 mm 5 m/S 749 mmHg 59%
    11:00 +13°C° 0 mm 5 m/S 749 mmHg 55%
    12:00 +14°C° 0 mm 6 m/S 749 mmHg 52%
    13:00 +14°C° 0 mm 6 m/S 749 mmHg 50%
    14:00 +15°C° 0 mm 6 m/S 749 mmHg 48%
    15:00 +14°C° 0 mm 5 m/S 749 mmHg 52%
    16:00 +14°C° 0 mm 4 m/S 749 mmHg 57%
    17:00 +13°C° 0 mm 3 m/S 749 mmHg 61%
    18:00 +12°C° 0 mm 3 m/S 749 mmHg 64%
    19:00 +10°C° 0 mm 3 m/S 750 mmHg 68%
    20:00 +8°C° 0 mm 3 m/S 750 mmHg 71%
    21:00 +7°C° 0 mm 2 m/S 750 mmHg 73%
    22:00 +7°C° 0 mm 2 m/S 750 mmHg 75%
    23:00 +6°C° 0 mm 2 m/S 751 mmHg 77%

    29 August, Donnerstag

    Zeit Temperatur Niederschläge Wind Luftdruck Luftfeuchtigkeit
    00:00 +6°C° 0 mm 2 m/S 751 mmHg 79%
    01:00 +5°C° 0 mm 2 m/S 751 mmHg 80%
    02:00 +5°C° 0 mm 2 m/S 751 mmHg 82%
    03:00 +5°C° 0 mm 2 m/S 751 mmHg 83%
    04:00 +5°C° 0 mm 2 m/S 751 mmHg 84%
    05:00 +4°C° 0 mm 2 m/S 751 mmHg 85%
    06:00 +5°C° 0 mm 3 m/S 751 mmHg 79%
    07:00 +8°C° 0 mm 3 m/S 751 mmHg 73%
    08:00 +10°C° 0 mm 3 m/S 751 mmHg 67%
    09:00 +11°C° 0 mm 4 m/S 751 mmHg 62%
    10:00 +13°C° 0 mm 4 m/S 751 mmHg 58%
    11:00 +14°C° 0 mm 4 m/S 750 mmHg 53%
    12:00 +15°C° 0 mm 4 m/S 750 mmHg 52%
    13:00 +15°C° 0 mm 4 m/S 750 mmHg 51%
    14:00 +17°C° 0 mm 4 m/S 750 mmHg 49%
    15:00 +15°C° 0 mm 4 m/S 749 mmHg 54%
    16:00 +14°C° 0 mm 3 m/S 749 mmHg 60%
    17:00 +14°C° 0 mm 3 m/S 749 mmHg 65%
    18:00 +12°C° 0 mm 3 m/S 749 mmHg 66%
    19:00 +11°C° 0 mm 3 m/S 750 mmHg 68%
    20:00 +9°C° 0 mm 3 m/S 750 mmHg 69%
    21:00 +8°C° 0 mm 3 m/S 750 mmHg 75%
    22:00 +7°C° 0 mm 3 m/S 750 mmHg 81%
    23:00 +6°C° 0 mm 2 m/S 750 mmHg 87%
    Mehr zeigen